Disclaimer

Please do not use the information listed here in-flight or in-navigation, as they are not provided to us by the airports but are provided by volunteers, so they might be outdated.

Search


Regions


Airport information page

Radio informations:
Tower (TWR) - 118.05 MHz

Airport informations:
Latitude: 70° 04' 07.73" N
Longitude: 024° 58' 24.56" E
Elevation: 25 feet - 8 meters
Operating hours: Remarks
Operating agency: Military-civil joint use airport
Timezone: UTC+1(+2DT) - Last Sunday in March to last Sunday in October
Fuel: JP-4, Wide cut turbine fuel MIL Spec T-5624

Jet A1, without icing nhibitor.

Runway information:
17/35 - 9147 x 148 feet< - >2788 x 45 meters

Recent METARs:
ENNA 160220Z AUTO 17003KT 9999 NCD M15/M16 Q0994 RMK WIND 1800FT 00000KT
ENNA 160250Z AUTO 22003KT 9999 NCD M15/M17 Q0994 RMK WIND 1800FT VRB01KT
ENNA 160320Z AUTO 21003KT 9999 FEW100/// M15/M18 Q0994 RMK WIND 1800FT 14003KT

Airport on the map: